Regional Weather Roundup
Issued by NWS

Home | Current Version | Previous Version | Graphics & Text | Print | Product List | Glossary On
Versions: 1 2 3 4 5 6 7 8 9 10 11 12 13 14 15 16 17 18 19 20 21 22 23 24 25 26 27 28 29 30 31 32 33 34 35 36 37 38 39 40 41 42 43 44 45 46 47 48 49 50
000
ASUS43 KMPX 222110
RWRMN
WEATHER ROUNDUP FOR MINNESOTA
NATIONAL WEATHER SERVICE TWIN CITIES/CHANHASSEN MN
400 PM CDT SAT APR 22 2017


NOTE: "FAIR" INDICATES FEW OR NO CLOUDS BELOW 12,000 FEET WITH NO
SIGNIFICANT WEATHER AND/OR OBSTRUCTIONS TO VISIBILITY. N/A MEANS
CURRENT SKY AND/OR WEATHER CONDITIONS ARE NOT AVAILABLE.

MNZ060>063-068>070-222200-
   Twin Cities Metro

CITY           SKY/WX    TMP DP  RH WIND       PRES   REMARKS
TWIN CITIES    MOSUNNY   68  34  28 W9G18     30.15F
ST PAUL        SUNNY     68  34  28 W15G23    30.15F
CRYSTAL        SUNNY     67  33  28 W10       30.14F
BLAINE         SUNNY     70  36  28 W12G17    30.15F
LAKEVILLE      SUNNY     66  37  34 W8        30.16F
EDEN PRAIRIE   SUNNY     69  35  28 W9        30.15F
SOUTH ST PAUL  SUNNY     67  34  29 W10       30.15F
LAKE ELMO      FAIR      66  36  32 SW5       30.16F
$$
MNZ001>005-007-008-013>017-022>024-027-028-222200-
   Northwest Minnesota

CITY           SKY/WX    TMP DP  RH WIND       PRES   REMARKS
BEMIDJI        MOSUNNY   62  40  43 W16G26    30.09F
HALLOCK        LGT SNOW  34  32  93 N14       30.22F WCI  24
ROSEAU         LGT RAIN  37  34  87 NW13      30.19F
WARROAD        LGT RAIN  37  34  87 NW12      30.19F
THIEF RVR FALL SUNNY     53  38  56 N14       30.15S
CROOKSTON      MOSUNNY   54  43  66 N15       30.15F
FOSSTON        SUNNY     61  41  48 NW10G16   30.12F
DETROIT LAKES  SUNNY     64  36  34 W10G18    30.12F
MOORHEAD       MOSUNNY   66  36  32 W16G23    30.11F
PARK RAPIDS    MOSUNNY   67  34  29 W17G31    30.10F
MAHNOMEN       FAIR      63  41  44 NW14G20   30.10F
$$
MNZ006-009>011-018-025>026-222200-
   North Central Minnesota

CITY           SKY/WX    TMP DP  RH WIND       PRES   REMARKS
BAUDETTE       LGT RAIN  39  36  89 NW12      30.16S
FLAG ISLAND    CLOUDY    39  36  87 N15       30.17S
INTL FALLS     CLOUDY    48  37  65 NW15      30.12S
WASKISH        PTSUNNY   54  39  58 N7        30.13S
BIG FORK       MOSUNNY   64  39  39 NW8       30.07F
LONGVILLE      PTSUNNY   64  36  34 W9G21     30.09F
GRAND RAPIDS   PTSUNNY   65  35  33 W15       30.09F
CRANE LAKE     PTSUNNY   52  37  58 NW13G18   30.11R
ORR            SUNNY     57  37  47 MISG      30.05S
COOK           MOSUNNY   61  41  48 NW12G18   30.06R
WALKER         MOCLDY    64  35  33 W15       30.08F
$$
MNZ012-019>021-037-222200-
   Northeast Minnesota

CITY           SKY/WX    TMP DP  RH WIND       PRES   REMARKS
DULUTH         MOSUNNY   65  36  34 W20       30.06F
ELY            MOSUNNY   63  30  29 NW17G28   30.02S
HIBBING        MOSUNNY   63  33  32 W13G23    30.05F
EVELETH        SUNNY     65  21  18 W18G29    30.05F
DULUTH HARBOR  SUNNY     68  36  30 SW16G29   30.06F
TWO HARBORS    MOSUNNY   70  41  35 W10G26    30.02F
SILVER BAY     MOSUNNY   70  34  26 W10G22    30.01F
GRAND MARAIS     N/A     49  37  63 W17       29.99F
G MARAIS ARPRT MOSUNNY   64  28  25 W14G22    30.00F
$$
MNZ029>031-032-039>041-046>048-054>057-064-222200-
   West Central Minnesota

CITY           SKY/WX    TMP DP  RH WIND       PRES   REMARKS
FERGUS FALLS   MOSUNNY   66  39  37 W14G20    30.12F
WHEATON        SUNNY     68  34  28 SW16      30.15F
MORRIS         SUNNY     66  37  34 W10G20    30.14F
ALEXANDRIA     SUNNY     66  37  34 W13       30.15F
ELBOW LAKE     FAIR      65  37  35 NW12G24   30.15F
WADENA         SUNNY     64  37  36 W12G22    30.12F
GLENWOOD       SUNNY     66  37  34 SW9G17    30.15F
APPLETON       SUNNY     68  34  28 W6        30.15F
BENSON         SUNNY     70  25  18 W13       30.17F
ORTONVILLE     SUNNY     66  36  32 W13       30.16F
MADISON        SUNNY     70  36  28 W14       30.17F
WILLMAR        FAIR      66  37  34 W8        30.18F
$$
MNZ033>034-036-042>043-049>051-058-059-222200-
   Central Minnesota

CITY           SKY/WX    TMP DP  RH WIND       PRES   REMARKS
ST CLOUD       SUNNY     66  34  30 W10G22    30.14F
SAUK CENTRE    FAIR      65  39  37 W13G20    30.14F
PAYNESVILLE    SUNNY     66  31  26 W9G17     30.16F
AITKIN         MOSUNNY   68  27  21 SW9G20    30.09F
PINE RIVER     MOSUNNY   64  39  39 W6G21     30.13F
BRAINERD       SUNNY     66  34  30 W18G24    30.12F
STAPLES        MOSUNNY   66  36  32 W10G18    30.13F
LONG PRAIRIE   FAIR      64  36  34 SW10G17   30.15F
LITTLE FALLS   MOSUNNY   64  32  29 SW8G20    30.13F
LITCHFIELD     SUNNY     68  37  32 W6        30.16F
BUFFALO        SUNNY     66  34  30 W10       30.16F
MAPLE LAKE     SUNNY     68  37  32 SW8G17    30.17F
HUTCHINSON     PTSUNNY   68  39  35 W8        30.17F
$$
MNZ037-044-045-052-053-222200-
   East Central Minnesota

CITY           SKY/WX    TMP DP  RH WIND       PRES   REMARKS
PRINCETON      SUNNY     70  36  28 SW8       30.14F
MORA           SUNNY     64  34  32 W7G20     30.14F
CAMBRIDGE      SUNNY     70  45  40 W14G22    30.12F
RUSH CITY      SUNNY     67  36  31 W10G21    30.13F
MOOSE LAKE     SUNNY     68  36  30 SW12G21   30.08F
HINCKLEY       FAIR      68  36  30 W12G22    30.11F
CLOQUET        MOSUNNY   66  27  22 SW20G28   30.08F
MCGREGOR       MOSUNNY   64  34  32 W12G20    30.10F
$$
MNZ071>073-080-081-089-090-097-098-222200-
   Southwest Minnesota

CITY           SKY/WX    TMP DP  RH WIND       PRES   REMARKS
MONTEVIDEO     SUNNY     70  37  30 N6        30.17F
GRANITE FALLS  SUNNY     70  38  30 W7G13     30.18F
CANBY          SUNNY     68  32  26 W7        30.19F
REDWOOD FALLS  SUNNY     68  32  26 NW10      30.16F
OLIVIA         SUNNY     70  36  28 W9G21     30.16F
PIPESTONE      SUNNY     64  27  24 N6        30.19F
WINDOM         SUNNY     66  30  26 W5        30.19F
WORTHINGTON    SUNNY     65  35  33 VRB7      30.20F
JACKSON        SUNNY     64  32  29 NW7       30.19F
TRACY          SUNNY     68  36  30 W6        30.19F
SLAYTON        SUNNY     65  34  32 W10G16    30.20F
$$
MNZ065>067-074>077-082>085-091>093-222200-
   South Central Minnesota

CITY           SKY/WX    TMP DP  RH WIND       PRES   REMARKS
MANKATO        SUNNY     67  37  33 NW12      30.18F
NEW ULM        SUNNY     66  36  32 NW6       30.17F
ST JAMES       SUNNY     66  36  32 W8G16     30.19F
FAIRMONT       SUNNY     65  33  30 CALM      30.19F
GLENCOE        SUNNY     67  41  37 W6        30.16F
FARIBAULT      SUNNY     66  36  32 SW9       30.18F
OWATONNA       SUNNY     66  30  26 W6        30.17F
WASECA         SUNNY     64  32  29 NW7G16    30.19F
ALBERT LEA     SUNNY     64  28  25 W7        30.18F
$$
MNZ078>079-086>088-094>096-222200-
   Southeast Minnesota

CITY           SKY/WX    TMP DP  RH WIND       PRES   REMARKS
ROCHESTER      SUNNY     65  34  31 VRB5      30.18F
RED WING       SUNNY     68  28  22 NW8       30.15F
STANTON        SUNNY     67  37  33 NW7       30.15F
DODGE CENTER   SUNNY     64  32  29 W5        30.18F
WINONA         SUNNY     64  32  29 N6        30.17F
AUSTIN         SUNNY     63  28  27 CALM      30.18F
PRESTON        SUNNY     62  31  31 NW9       30.19F
$$
ABBREVIATIONS USED IN REMARKS
   TC - TEMPERATURES IN CELSIUS
  WCI - WIND CHILL INDEX
   HX - HEAT INDEX
  VSB - VISIBILITY
$$




USA.gov is the U.S. government's official web portal to all federal, state and local government web resources and services.